User: anonymous   Login
Location: Unspecified
(0.0000°N, 0.0000°E)
Time: 15:19:51
(UTC+00:00)
Language:

TIANWANG 1A (TW-1A) - Orbit

View from above orbital plane
View from above orbital plane
View from above satellite
View from above satellite

Ground track
Ground track

The orbit data is extracted from the following two-line orbital elements,

1 40928U 15051D   17229.30882093  .00002691  00000-0  77697-4 0  9997
2 40928  97.2230 264.0244 0012152 347.3142  73.3923 15.36472471106087
Epoch (UTC): 17 August 2017 07:24:42
Eccentricity: 0.0012152
inclination: 97.2230°
perigee height: 448 km
apogee height: 465 km
right ascension of ascending node: 264.0244°
argument of perigee: 347.3142°
revolutions per day: 15.36472471
mean anomaly at epoch: 73.3923°
orbit number at epoch: 10608

The dashed part of the orbit path shows where the satellite is in the earth's shadow,  

DLR